Weather History for Tehachapi, CA

Change the Weather History Date:

Thursday, November 7, 2013

  Actual Average Record
Temperature  
Mean Temperature 50 °F -  
Max Temperature 66 °F 61 °F 73 °F (2012)
Min Temperature 35 °F 37 °F 32 °F (2011)
Degree Days  
Heating Degree Days 14    
Moisture  
Dew Point 18 °F    
Average Humidity 27    
Maximum Humidity 52    
Minimum Humidity 15    
Precipitation  
Precipitation 0.00 in - - ()
Sea Level Pressure  
Sea Level Pressure 30.23 in    
Wind  
Wind Speed 10 mph (ESE)    
Max Wind Speed 18 mph    
Max Gust Speed 24 mph    
Visibility 10 miles    
Events      
Averages and records for this station are not official NWS values.
T = Trace of Precipitation, MM = Missing Value Source: NWS Daily Summary

Daily Weather History Graph

Daily Weather History Graph

Search for Another Location

Airport:

Trip Planner

Search our weather history database for the weather conditions in past years. The results will help you decide how hot, cold, wet, or windy it might be!

Date:

Astronomy

Nov. 07, 2013 Rise Set
Actual Time 6:20 AM PST 4:53 PM PST
Civil Twilight 5:54 AM PST 5:20 PM PST
Nautical Twilight 5:24 AM PST 5:50 PM PST
Astronomical Twilight 4:54 AM PST 6:20 PM PST
Moon 10:31 AM PST (11/7) 9:11 PM PST (11/7)
Length of Visible Light 11h 25m
Length of Day
10h 32m
Waxing Crescent, 24% of the Moon is Illuminated
Nov 7
Waxing Crescent
Nov 9
First Quarter
Nov 17
Full
Nov 25
Last Quarter
Dec 2
New

Hourly Weather History & Observations

Time (PST) Temp. Windchill Dew Point Humidity Pressure Visibility Wind Dir Wind Speed Gust Speed Precip Events Conditions
12:15 AM 50.0 °F - 14.0 °F 24% 30.30 in 10.0 mi East 9.2 mph - N/A   Clear
12:35 AM 50.0 °F - 14.0 °F 24% 30.30 in 10.0 mi East 10.4 mph - N/A   Clear
12:55 AM 50.0 °F - 14.0 °F 24% 30.29 in 10.0 mi ESE 11.5 mph - N/A   Clear
1:15 AM 42.8 °F 36.6 °F 14.0 °F 31% 30.29 in 10.0 mi ESE 11.5 mph - N/A   Clear
1:35 AM 48.2 °F - 14.0 °F 25% 30.29 in 10.0 mi ESE 10.4 mph - N/A   Clear
1:55 AM 48.2 °F - 14.0 °F 25% 30.29 in 10.0 mi East 11.5 mph - N/A   Clear
2:15 AM 50.0 °F - 15.8 °F 26% 30.28 in 10.0 mi ESE 9.2 mph - N/A   Clear
2:35 AM 48.2 °F - 15.8 °F 27% 30.28 in 10.0 mi East 10.4 mph - N/A   Clear
2:55 AM 50.0 °F - 15.8 °F 26% 30.28 in 10.0 mi East 10.4 mph - N/A   Clear
3:15 AM 50.0 °F - 15.8 °F 26% 30.28 in 10.0 mi East 9.2 mph - N/A   Clear
3:35 AM 50.0 °F - 15.8 °F 26% 30.28 in 10.0 mi East 10.4 mph - N/A   Clear
3:55 AM 50.0 °F - 14.0 °F 24% 30.28 in 10.0 mi East 10.4 mph - N/A   Clear
4:15 AM 48.2 °F - 15.8 °F 27% 30.27 in 10.0 mi ESE 9.2 mph - N/A   Clear
4:35 AM 48.2 °F - 15.8 °F 27% 30.27 in 10.0 mi ESE 9.2 mph - N/A   Clear
4:55 AM 46.4 °F 41.5 °F 14.0 °F 27% 30.27 in 10.0 mi ESE 10.4 mph - N/A   Clear
5:15 AM 50.0 °F - 14.0 °F 24% 30.27 in 10.0 mi East 11.5 mph - N/A   Clear
5:35 AM 50.0 °F - 14.0 °F 24% 30.27 in 10.0 mi East 10.4 mph - N/A   Clear
5:55 AM 50.0 °F - 14.0 °F 24% 30.26 in 10.0 mi East 13.8 mph - N/A   Clear
6:15 AM 50.0 °F - 14.0 °F 24% 30.26 in 10.0 mi East 11.5 mph 17.3 mph N/A   Clear
6:35 AM 50.0 °F - 14.0 °F 24% 30.26 in 10.0 mi East 12.7 mph - N/A   Clear
6:55 AM 50.0 °F - 15.8 °F 26% 30.27 in 9.0 mi East 13.8 mph - N/A   Clear
7:15 AM 53.6 °F - 15.8 °F 22% 30.27 in 10.0 mi East 11.5 mph - N/A   Clear
7:35 AM 53.6 °F - 15.8 °F 22% 30.28 in 10.0 mi ESE 13.8 mph - N/A   Clear
7:55 AM 55.4 °F - 15.8 °F 21% 30.28 in 10.0 mi ESE 13.8 mph - N/A   Clear
8:15 AM 57.2 °F - 17.6 °F 21% 30.28 in 10.0 mi SE 15.0 mph - N/A   Clear
8:35 AM 59.0 °F - 15.8 °F 19% 30.28 in 10.0 mi SE 15.0 mph 19.6 mph N/A   Clear
8:55 AM 59.0 °F - 17.6 °F 20% 30.28 in 10.0 mi SE 18.4 mph 24.2 mph N/A   Clear
9:15 AM 62.6 °F - 19.4 °F 19% 30.28 in 10.0 mi SE 16.1 mph 20.7 mph N/A   Clear
9:35 AM 62.6 °F - 17.6 °F 18% 30.28 in 10.0 mi SE 18.4 mph 24.2 mph N/A   Clear
9:55 AM 62.6 °F - 19.4 °F 19% 30.27 in 9.0 mi SE 16.1 mph 24.2 mph N/A   Clear
10:15 AM 62.6 °F - 19.4 °F 19% 30.27 in 10.0 mi ESE 16.1 mph 21.9 mph N/A   Clear
10:35 AM 64.4 °F - 17.6 °F 16% 30.27 in 8.0 mi ESE 17.3 mph 23.0 mph N/A   Clear
10:55 AM 64.4 °F - 17.6 °F 16% 30.26 in 9.0 mi ESE 17.3 mph 23.0 mph N/A   Clear
11:15 AM 62.6 °F - 17.6 °F 18% 30.25 in 10.0 mi ESE 15.0 mph - N/A   Clear
11:35 AM 64.4 °F - 17.6 °F 16% 30.25 in 10.0 mi ESE 15.0 mph 21.9 mph N/A   Clear
11:55 AM 64.4 °F - 17.6 °F 16% 30.24 in 10.0 mi ESE 15.0 mph 20.7 mph N/A   Clear
12:15 PM 64.4 °F - 17.6 °F 16% 30.22 in 10.0 mi ESE 13.8 mph 18.4 mph N/A   Clear
12:35 PM 64.4 °F - 17.6 °F 16% 30.21 in 10.0 mi East 11.5 mph - N/A   Clear
12:55 PM 66.2 °F - 17.6 °F 15% 30.21 in 10.0 mi ESE 11.5 mph 17.3 mph N/A   Clear
1:15 PM 66.2 °F - 17.6 °F 15% 30.20 in 10.0 mi ESE 9.2 mph - N/A   Clear
1:35 PM 66.2 °F - 17.6 °F 15% 30.20 in 10.0 mi East 8.1 mph - N/A   Clear
1:55 PM 66.2 °F - 17.6 °F 15% 30.19 in 10.0 mi ESE 8.1 mph - N/A   Clear
2:35 PM 66.2 °F - 17.6 °F 15% 30.19 in 10.0 mi SE 3.5 mph - N/A   Clear
2:55 PM 64.4 °F - 17.6 °F 16% 30.18 in 10.0 mi Calm Calm - N/A   Clear
3:15 PM 64.4 °F - 24.8 °F 22% 30.18 in 9.0 mi NW 4.6 mph - N/A   Clear
3:35 PM 62.6 °F - 24.8 °F 24% 30.18 in 10.0 mi NNW 4.6 mph - N/A   Clear
3:55 PM 62.6 °F - 23.0 °F 22% 30.18 in 9.0 mi NW 5.8 mph - N/A   Clear
4:15 PM 60.8 °F - 24.8 °F 25% 30.18 in 9.0 mi NW 5.8 mph - N/A   Clear
4:35 PM 59.0 °F - 24.8 °F 27% 30.17 in 8.0 mi West 3.5 mph - N/A   Clear
4:55 PM 57.2 °F - 24.8 °F 29% 30.17 in 8.0 mi Calm Calm - N/A   Clear
5:15 PM 55.4 °F - 24.8 °F 31% 30.17 in 9.0 mi Calm Calm - N/A   Clear
5:35 PM 55.4 °F - 24.8 °F 31% 30.18 in 10.0 mi Calm Calm - N/A   Clear
5:55 PM 50.0 °F - 23.0 °F 35% 30.18 in 10.0 mi Calm Calm - N/A   Clear
6:15 PM 48.2 °F - 23.0 °F 37% 30.18 in 10.0 mi Calm Calm - N/A   Clear
6:35 PM 46.4 °F 43.5 °F 23.0 °F 40% 30.17 in 9.0 mi SE 5.8 mph - N/A   Clear
6:55 PM 48.2 °F - 23.0 °F 37% 30.18 in 10.0 mi Calm Calm - N/A   Clear
7:15 PM 48.2 °F - 21.2 °F 34% 30.18 in 10.0 mi Calm Calm - N/A   Clear
7:35 PM 46.4 °F - 21.2 °F 37% 30.17 in 10.0 mi North - - N/A   Clear
7:55 PM 44.6 °F - 23.0 °F 43% 30.17 in 10.0 mi North - - N/A   Clear
8:15 PM 42.8 °F - 19.4 °F 39% 30.17 in 10.0 mi Calm Calm - N/A   Clear
8:35 PM 42.8 °F - 21.2 °F 42% 30.18 in 10.0 mi Calm Calm - N/A   Clear
8:55 PM 41.0 °F 39.0 °F 19.4 °F 42% 30.18 in 10.0 mi SE 3.5 mph - N/A   Clear
9:15 PM 41.0 °F 39.0 °F 19.4 °F 42% 30.18 in 10.0 mi East 3.5 mph - N/A   Clear
9:35 PM 39.2 °F 37.0 °F 17.6 °F 42% 30.18 in 10.0 mi SE 3.5 mph - N/A   Clear
9:55 PM 39.2 °F 35.0 °F 17.6 °F 42% 30.18 in 10.0 mi SE 5.8 mph - N/A   Clear
10:15 PM 37.4 °F - 17.6 °F 45% 30.18 in 10.0 mi Calm Calm - N/A   Clear
10:35 PM 39.2 °F 35.9 °F 19.4 °F 45% 30.18 in 10.0 mi East 4.6 mph - N/A   Clear
10:55 PM 37.4 °F - 19.4 °F 48% 30.17 in 10.0 mi Calm Calm - N/A   Clear
11:15 PM 37.4 °F - 17.6 °F 45% 30.17 in 10.0 mi North - - N/A   Clear
11:35 PM 35.6 °F - 17.6 °F 48% 30.16 in 10.0 mi Calm Calm - N/A   Clear
11:55 PM 35.6 °F 31.7 °F 19.4 °F 52% 30.16 in 10.0 mi SSE 4.6 mph - N/A   Clear